Location: Crescent
(42.8242°N, 73.7329°W)
Time: 07:25:25
(UTC+00:00)

Vanguard 1 - Pass Details

Date: 17 February 2026
Orbit: 653 x 3818 km, 34.2° (Epoch: 12 March)

Event Time Altitude Azimuth Distance (km) Brightness Sun altitude
Rises 21:40:09 0° 251° (WSW) 5,027 16.2 7.6°
Reaches altitude 10° 21:42:53 10° 248° (WSW) 4,359 17.1 7.2°
Maximum altitude 21:55:40 63° 171° (S) 3,104 12.8 5.0°
Drops below altitude 10° 22:17:01 10° 97° (E) 6,851 13.8 1.3°
Sets 22:22:42 0° 95° (E) 7,955 14.1 0.3°
